Regional Weather Roundup
Issued by NWS

Home | Current Version | Previous Version | Text Only | Print | Product List | Glossary On
Versions: 1 2 3 4 5 6 7 8 9 10 11 12 13 14 15 16 17 18 19 20 21 22 23 24 25 26 27 28 29 30 31 32 33 34 35 36 37 38 39 40 41 42 43 44 45 46 47 48 49 50
000
ASUS43 KTOP 161859
RWRKS

WEATHER ROUNDUP FOR KANSAS
NATIONAL WEATHER SERVICE GOODLAND KS
200 PM CDT TUE SEP 16 2014

NOTE:  "FAIR" INDICATES FEW OR NO CLOUDS BELOW 12,000 FEET WITH NO
SIGNIFICANT WEATHER AND/OR OBSTRUCTIONS TO VISIBILITY.

KSZ001>006-013>018-027>032-041>047-162000-
NORTHWEST KANSAS

CITY           SKY/WX    TMP DP  RH WIND       PRES   REMARKS
GOODLAND       SUNNY     77  55  46 SW14G23   30.07F
HAYS           CLOUDY    66  55  68 S14       30.12F
HILL CITY      CLOUDY    69  56  62 S12G21    30.09F
RUSSELL        CLOUDY    67  55  65 SE9       30.11F
$$

KSZ061>065-074>080-084>089-162000-
SOUTHWEST KANSAS

CITY           SKY/WX    TMP DP  RH WIND       PRES   REMARKS
DODGE CITY     MOSUNNY   78  59  51 S18G25    30.11F
ELKHART          N/A     80  58  46 SW13        N/A
GARDEN CITY    SUNNY     78  60  53 S16       30.09F
GREAT BEND     SUNNY     72  57  60 SE13G18   30.11F
LIBERAL        SUNNY     81  61  50 S16G23    30.13F
PRATT          SUNNY     73  55  53 S10       30.13F
$$

KSZ066>073-081>083-090>101-162000-
SOUTHEAST KANSAS

CITY           SKY/WX    TMP DP  RH WIND       PRES   REMARKS
CHANUTE        SUNNY     72  59  63 E5        30.13F
COFFEYVILLE    CLOUDY    69  60  73 E6        30.13F
HUTCHINSON     CLOUDY    72  55  55 SE8       30.13F
NEWTON         CLOUDY    72  54  53 SE8       30.15F
PARSONS        MOSUNNY   72  62  71 VRB3      30.14F
WICHITA INTL   PTSUNNY   73  57  57 VRB3      30.12F
WICHITA JABRA  CLOUDY    72  56  57 S7        30.13F
WICHITA MCCONL MOSUNNY   75  55  50 SE1       30.14F
WINFIELD       CLOUDY    72  61  68 E7        30.14F
$$

KSZ007>012-019>026-033>040-048>060-102>105-162000-
NORTHEAST KANSAS

CITY           SKY/WX    TMP DP  RH WIND       PRES   REMARKS
CONCORDIA      CLOUDY    66  52  60 SE8       30.13F
EMPORIA        SUNNY     71  49  45 E5        30.13F
LAWRENCE       SUNNY     69  50  50 CALM      30.15F
MANHATTAN      CLOUDY    71  49  45 VRB3      30.13F
OLATHE IND     SUNNY     69  51  52 VRB5      30.15F
OLATHE EXE     SUNNY     69  53  56 E6        30.14F
SALINA         CLOUDY    68  51  54 S6        30.14F
TOPEKA BILLARD SUNNY     71  51  49 NE5       30.15F
TOPEKA FORBES  SUNNY     70  50  49 E6        30.15F
$$



USA.gov is the U.S. government's official web portal to all federal, state and local government web resources and services.